Terug naar catalogus

FALCON 9 R/B

LostLPO
NORAD 40391·ROCKET BODY·🇺🇸 United States

Gelanceerd Feb 11, 2015 vanaf Cape Canaveral Space Force Station

Loading…

TLE

VerouderdSource: Space-Track

Epoch: Feb 11, 2022, 04:46 UTC

1 40391U 15007B   22042.19918981 -.00027866  00000-0  00000-0 0  9996
2 40391  34.5090  11.5527 8233381 150.1422  25.2112  0.04100887  1310

Volg FALCON 9 R/B in realtime met AllMySat

Download on the App Store